WetterOnline ( https://www.wetteronline.de )

Wetter aktuell Moorgrund

Aktuelles Wetter: Eisenach (312m)

6-stündlich | Neueste Meldungen
Ortszeit Temperatur Wetter
Mi, 30.09. 20:00 14.2° C bedeckt
Mi, 30.09. 14:00 15.2° C bewölkt
Mi, 30.09. 8:00 11.7° C bedeckt
Mi, 30.09. 2:00 12.5° C bedeckt
Di, 29.09. 20:00 12.0° C bewölkt
Di, 29.09. 14:00 13.4° C bedeckt
Di, 29.09. 8:00 4.6° C wolkenlos
Di, 29.09. 2:00 6.3° C wolkenlos
Ortszeit Temperatur Wetter
Do, 01.10. 1:00 11.0° C Nebel
Do, 01.10. 0:40 11.5° C wolkig
Do, 01.10. 0:30 11.7° C wolkig
Do, 01.10. 0:20 11.7° C wolkig
Do, 01.10. 0:10 11.8° C leicht bewölkt
Do, 01.10. 0:00 12.1° C leicht bewölkt
Mi, 30.09. 23:50 12.1° C leicht bewölkt
Mi, 30.09. 23:30 12.6° C wolkenlos
Mi, 30.09. 23:00 13.2° C bewölkt
Mi, 30.09. 22:30 13.9° C bedeckt
Mi, 30.09. 22:00 13.9° C bedeckt
Mi, 30.09. 21:30 14.0° C bewölkt
Ortszeit Relative Feuchte Sichtweite
Mi, 30.09. 20:00 84% 55 km
Mi, 30.09. 14:00 77% 50 km
Mi, 30.09. 8:00 96% 13 km
Mi, 30.09. 2:00 91% 35 km
Di, 29.09. 20:00 83% 35 km
Di, 29.09. 14:00 74% 60 km
Di, 29.09. 8:00 97% 29 km
Di, 29.09. 2:00 95% >70 km
Ortszeit Relative Feuchte Sichtweite
Do, 01.10. 1:00 99% 100 m
Do, 01.10. 0:40 99% -
Do, 01.10. 0:30 99% 6 km
Do, 01.10. 0:20 99% -
Do, 01.10. 0:10 99% -
Do, 01.10. 0:00 95% 13 km
Mi, 30.09. 23:50 95% -
Mi, 30.09. 23:30 94% 17 km
Mi, 30.09. 23:00 91% 22 km
Mi, 30.09. 22:30 88% 28 km
Mi, 30.09. 22:00 88% 28 km
Mi, 30.09. 21:30 88% 30 km
Ortszeit Niederschlagsmenge Niederschlagsart
Mi, 30.09. 20:00 0.1 l/m2 in 12 Std. -
Mi, 30.09. 14:00 0.1 l/m2 in 6 Std. Niederschlag
Mi, 30.09. 8:00 0.1 l/m2 in 12 Std. Sprühregen, Niederschlag
Mi, 30.09. 2:00 0.1 l/m2 in 6 Std. Regen
Di, 29.09. 20:00 0.0 l/m2 in 12 Std. -
Di, 29.09. 14:00 0.0 l/m2 in 6 Std. -
Di, 29.09. 8:00 0.0 l/m2 in 12 Std. -
Di, 29.09. 2:00 0.0 l/m2 in 6 Std. -
Ortszeit Niederschlagsmenge Niederschlagsart
Do, 01.10. 1:00 0.0 l/m2 in 1 Std. -
Do, 01.10. 0:40 keine Meldung -
Do, 01.10. 0:30 0.0 l/m2 in 1 Std. -
Do, 01.10. 0:20 keine Meldung -
Do, 01.10. 0:10 keine Meldung -
Do, 01.10. 0:00 0.0 l/m2 in 1 Std. -
Mi, 30.09. 23:50 keine Meldung -
Mi, 30.09. 23:30 0.0 l/m2 in 1 Std. -
Mi, 30.09. 23:00 0.0 l/m2 in 1 Std. Regen
Mi, 30.09. 22:30 0.0 l/m2 in 1 Std. -
Mi, 30.09. 22:00 0.1 l/m2 in 1 Std. Regen
Mi, 30.09. 21:30 0.1 l/m2 in 1 Std. Schneeregen
Ortszeit Stärke Spitze Richtung
km/h Bft. km/h Grad Sektor
Mi, 30.09. 20:00 4 1 14 130° SO
Mi, 30.09. 14:00 9 2 19 230° SW
Mi, 30.09. 8:00 9 2 15 260° W
Mi, 30.09. 2:00 6 1 17 220° SW
Di, 29.09. 20:00 6 1 24 260° W
Di, 29.09. 14:00 11 2 22 250° W
Di, 29.09. 8:00 4 1 14 330° NW
Di, 29.09. 2:00 0 0 11 - -
Ortszeit Stärke Spitze Richtung
km/h Bft. km/h Grad Sektor
Do, 01.10. 1:00 4 1 7 160° S
Do, 01.10. 0:40 4 1 - 130° SO
Do, 01.10. 0:30 6 1 7 120° SO
Do, 01.10. 0:20 6 1 - 120° SO
Do, 01.10. 0:10 6 1 - 110° O
Do, 01.10. 0:00 7 2 7 110° O
Mi, 30.09. 23:50 7 2 - 110° O
Mi, 30.09. 23:30 4 1 4 50° NO
Mi, 30.09. 23:00 4 1 4 100° O
Mi, 30.09. 22:30 0 0 4 - -
Mi, 30.09. 22:00 0 0 7 - -
Mi, 30.09. 21:30 7 2 7 90° O
Ortszeit Untergrenze Bedeckung Gattung
total tief tief mittel hoch
Mi, 30.09. 20:00 720 m 8/8 8/8 - - -
Mi, 30.09. 14:00 570 m 8/8 7/8 - - -
Mi, 30.09. 8:00 540 m 8/8 8/8 - - -
Mi, 30.09. 2:00 240 m 8/8 8/8 - - -
Di, 29.09. 20:00 750 m 7/8 7/8 - - -
Di, 29.09. 14:00 1110 m 8/8 8/8 - - -
Di, 29.09. 8:00 - 0/8 0/8 - - -
Di, 29.09. 2:00 - 0/8 0/8 - - -
Ortszeit Bedeckungsgrad in Achtel und Wolkenuntergrenze
Do, 01.10. 1:00 8(10500m)
Do, 01.10. 0:40 8(10500m)
Do, 01.10. 0:30 7(10500m)
Do, 01.10. 0:20 7(10500m)
Do, 01.10. 0:10 6(10500m)
Do, 01.10. 0:00 3(10500m)
Mi, 30.09. 23:50 3(10500m)
Mi, 30.09. 23:30 keine Wolken
Mi, 30.09. 23:00 3(330m) 3(510m) 7(1020m)
Mi, 30.09. 22:30 8(390m) 8(1020m)
Mi, 30.09. 22:00 8(420m)
Mi, 30.09. 21:30 7(480m)
Ortszeit Luftdruck NN (hPa) Tendenz (hPa in 3 Std.)
Mi, 30.09. 20:00 1014 - 0,6
Mi, 30.09. 14:00 1016 - 0,8
Mi, 30.09. 8:00 1017 - 0,1
Mi, 30.09. 2:00 1018 - 0,3
Di, 29.09. 20:00 1018 + 0,8
Di, 29.09. 14:00 1017 + 0,2
Di, 29.09. 8:00 1017 + 1,2
Di, 29.09. 2:00 1015 + 0,4
Ortszeit Luftdruck NN (hPa) Tendenz (hPa in 3 Std.)
Do, 01.10. 1:00 1013 - 1,7
Do, 01.10. 0:40 1013 keine Meldung
Do, 01.10. 0:30 1013 - 1,4
Do, 01.10. 0:20 1013 keine Meldung
Do, 01.10. 0:10 1013 keine Meldung
Do, 01.10. 0:00 1013 - 1,1
Mi, 30.09. 23:50 1013 keine Meldung
Mi, 30.09. 23:30 1013 - 0,9
Mi, 30.09. 23:00 1014 - 0,4
Mi, 30.09. 22:30 1014 - 0,3
Mi, 30.09. 22:00 1014 - 0,2
Mi, 30.09. 21:30 1014 - 0,3
Ortszeit Schneehöhe (cm)
Mi, 30.09. 20:00 -
Mi, 30.09. 14:00 -
Mi, 30.09. 8:00 -
Mi, 30.09. 2:00 -
Di, 29.09. 20:00 -
Di, 29.09. 14:00 -
Di, 29.09. 8:00 -
Di, 29.09. 2:00 -
Ortszeit Schneehöhe (cm)
Do, 01.10. 1:00 -
Do, 01.10. 0:40 -
Do, 01.10. 0:30 -
Do, 01.10. 0:20 -
Do, 01.10. 0:10 -
Do, 01.10. 0:00 -
Mi, 30.09. 23:50 -
Mi, 30.09. 23:30 -
Mi, 30.09. 23:00 -
Mi, 30.09. 22:30 -
Mi, 30.09. 22:00 -
Mi, 30.09. 21:30 -
Link zu dieser Seite / Seite empfehlen

Das Wetter in ...